星链-34616(STARLINK-34616)

导读

STARLINK-34616是美国(US)发射的星链卫星,于2025年11月6日升空,隶属于SpaceX打造的星链星座项目。星链系统旨在为全球提供覆盖偏远地区的高速低延迟卫星互联网服务,该卫星的入轨进一步扩充了星链星座的在轨规模,提升星座服务的覆盖密度与稳定性。

基本信息
目录编号:
66320
目录名称:
STARLINK-34616
国际标识:
2025-253B
轨道中心:
EARTH
卫星名称:
星链-34616
卫星全名:
星链-34616(STARLINK-34616)
卫星状态:
在轨 (已飞行302 天)
发射日期:
2025-11-06 UTC
国别 :
美国 (US)
星等 :
--
轨道信息
数据来源 国际轨道数据
星历时间: 2026-09-04T11:50:08+0800
16小时前
查看轨道信息
半长轴: 6861.163km
偏心率: 0.000156
轨道倾角: 43.003°
近地点辐角 276.487°
升交点赤经 284.217°
平近点角 83.581°
近地点: 481.955km
远地点: 484.097km
周期: 94.266分钟
每日圈数: 15.27588
详细信息
固有亮度:
5
最大亮度:
2.5
卫星平台:
Starlink V1.0
覆盖范围:
全球
运营商:
太空探索技术公司
运营商所在国:
美国
制造商(研发单位):
太空探索技术公司
制造商所在国:
美国
使用方式:
暂无
卫星简介
Starlink 计划是 SpaceX 推出的全球卫星互联网项目,通过发射低轨道卫星,为全球尤其是偏远地区提供高速、低延迟的互联网服务。自 2019 年起,Starlink 已部署数千颗卫星,旨在缩小全球数字鸿沟,推动互联网普及。该项目还为军事、航空等行业提供通信支持,带来广泛经济效益。
2D轨道图
3D轨道图
轨道高度分析图
轨道倾角分析图
轨道综合分析图
查看轨道综合分析图
交会数据列表
事件ID 空间交会对象 最接近时刻(TCA) 交会距离 交会风险概率(CRP) 交会风险指数(CRI) 操作
CDM_260906-221806-632006-718621
2026-09-06T
22:18:39+0000
0.944 km
远距离
2.118536E-5 中风险 0.62
CDM_260906-235206-632006-718621
2026-09-06T
23:52:48+0000
1.131 km
极远距离
1.134613E-5 中风险 0.56
CDM_260906-204406-632006-718621
2026-09-06T
20:44:30+0000
2.203 km
极远距离
1.545738E-6 低风险 0.39
CDM_260907-012606-632006-718621
2026-09-07T
01:26:58+0000
2.484 km
极远距离
1.226065E-6 低风险 0.37